SHIJIAN-17 (SJ-17)

Last updated on Jan. 29, 2020, 4:37 a.m. UTC

1 41838U 16065A   20028.84187007 -.00000362  00000-0  00000-0 0  9991
2 41838   0.0400 131.2094 0002394 172.0808 242.6397  1.00267493 11832
UTC
Height (km)
Latitude
Longitude
Inclination
Orbital Period
UTC large
Height (km)
Speed (km/s)
/
Latitude / Longitude
Inclination (degrees)
Orbital Period (minutes)
Azimuth
Elevation
Range (km)
Doppler Factor
iOS Compass Heading
iOS Angle

Next 30 passes for location: Hong Kong

Rise time Rise Azimuth (degrees) Set time Set Azimuth (degrees) Duration Max altitude (degrees)

No matching passes for this satellites